[[{"header":{"parameterUnit":"m.s-1","parameterCategory":1,"la1":30.2992,"la2":30.254,"lo1":-89.0895,"lo2":-89.0443,"dy":0.0025,"dx":0.0025,"nx":19,"ny":19,"refTime":"2026-04-17T09:00:00:Z","depth":0,"parameterNumber":2,"parameterNumberName":"U-component_of_WINDS"},"data":[0,0,0,-0.8705,-0.8704,-0.8668,-0.8667,-0.8629,-0.8629,0,0,0,0,0,0,0,0,0,0,0,-0.8722,-0.8722,-0.8705,-0.8704,-0.8668,-0.8667,-0.8629,-0.8629,0,0,0,0,0,0,0,0,0,0,0,-0.8722,-0.8722,-0.8722,-0.8704,-0.8668,-0.8667,-0.8629,-0.8654,0,0,0,0,0,0,0,0,0,0,-0.8688,-0.871,-0.8722,-0.8722,-0.8704,-0.8668,-0.8667,-0.8655,-0.8652,-0.865,0,-0.865,0,-0.8639,-0.8627,-0.8627,0,0,0,-0.87,-0.8712,-0.8697,-0.8722,-0.8704,-0.8668,-0.8683,-0.8653,-0.865,-0.8647,-0.8649,-0.8648,-0.8638,-0.8627,-0.8627,-0.863,-0.863,0,0,-0.8702,-0.8719,-0.8699,-0.8695,-0.8702,-0.8684,-0.8682,-0.8651,-0.8655,-0.8649,-0.8647,-0.8638,-0.8627,-0.8626,-0.8629,-0.863,0,0,0,-0.8711,-0.872,-0.8705,-0.8697,-0.869,-0.8683,-0.868,-0.8657,-0.865,-0.8646,-0.8637,-0.8626,-0.8626,-0.8629,-0.8629,-0.8657,0,0,0,-0.8712,-0.8725,-0.8706,-0.8716,-0.869,-0.8673,-0.8687,-0.8652,-0.8648,-0.8637,-0.8626,-0.8626,-0.8629,-0.8629,-0.8656,-0.8668,0,0,0,-0.8722,-0.8726,-0.8723,-0.8717,-0.8702,-0.8673,-0.8665,-0.8651,-0.8643,-0.8627,-0.8626,-0.8629,-0.8629,-0.8655,-0.8666,-0.8674,0,0,0,-0.8738,-0.8748,-0.8724,-0.8731,-0.8702,-0.869,-0.8665,-0.8655,-0.8644,-0.8626,-0.8629,-0.8629,-0.8654,-0.8665,-0.8673,-0.8684,-0.869,0,0,-0.876,-0.8752,-0.8755,-0.8732,-0.8728,-0.8695,-0.8695,-0.8669,-0.8652,-0.8638,-0.8638,-0.8656,-0.8666,-0.8674,-0.8718,-0.8723,0,0,0,-0.8767,-0.877,-0.8765,-0.8756,-0.8736,-0.8721,-0.8693,-0.8683,-0.8671,-0.8648,-0.8661,-0.8666,-0.867,-0.8674,-0.8679,-0.8681,-0.8632,-0.8632,-0.8632,-0.8822,-0.88,-0.8804,-0.8777,-0.8768,-0.8739,-0.873,-0.8712,-0.8692,-0.8695,-0.8691,-0.8721,-0.8727,-0.873,-0.8733,-0.8695,-0.8695,-0.8695,-0.8695,-0.8852,-0.8853,-0.8826,-0.882,-0.8796,-0.879,-0.8763,-0.8749,-0.874,-0.8722,-0.8725,-0.8708,-0.8737,-0.8738,-0.8697,-0.8697,-0.8697,-0.8696,-0.8696,-0.8887,-0.8883,-0.8871,-0.8855,-0.8845,-0.8817,-0.8811,-0.8789,-0.8768,-0.8771,-0.8764,-0.8764,-0.8761,-0.8769,-0.8769,-0.8769,-0.8769,-0.8769,-0.8769,-0.8927,-0.8913,-0.891,-0.889,-0.8881,-0.8867,-0.8838,-0.8828,-0.8812,-0.8797,-0.8797,-0.8777,-0.8743,-0.8736,-0.8771,-0.8771,-0.8771,-0.877,-0.877,-0.8967,-0.8955,-0.895,-0.8942,-0.8916,-0.8908,-0.888,-0.8863,-0.8852,-0.8849,-0.8828,-0.8807,-0.8796,-0.8793,-0.8787,-0.8833,-0.8833,-0.8833,-0.8833,-0.8997,-0.8989,-0.898,-0.8967,-0.8952,-0.8927,-0.8922,-0.89,-0.8874,-0.8866,-0.8856,-0.8845,-0.8843,-0.8834,-0.8829,-0.8823,-0.8878,-0.8878,-0.8878,-0.9021,-0.9011,-0.9012,-0.8987,-0.8965,-0.8947,-0.8943,-0.8929,-0.8897,-0.8879,-0.8859,-0.8857,-0.884,-0.8835,-0.8818,-0.8812,-0.88,0,0]},{"header":{"parameterUnit":"m.s-1","parameterCategory":1,"la1":30.2992,"la2":30.254,"lo1":-89.0895,"lo2":-89.0443,"dy":0.0025,"dx":0.0025,"nx":19,"ny":19,"refTime":"2026-04-17T09:00:00:Z","depth":0,"parameterNumber":3,"parameterNumberName":"V-component_of_WINDS"},"data":[0,0,0,0.4419,0.4419,0.4437,0.4437,0.4481,0.4481,0,0,0,0,0,0,0,0,0,0,0,0.4425,0.4426,0.4419,0.442,0.4437,0.4437,0.448,0.4481,0,0,0,0,0,0,0,0,0,0,0,0.4425,0.4426,0.4426,0.442,0.4437,0.4437,0.448,0.446,0,0,0,0,0,0,0,0,0,0,0.4439,0.4456,0.4425,0.4426,0.442,0.4437,0.4437,0.4458,0.4461,0.4481,0,0.4501,0,0.4492,0.4485,0.4485,0,0,0,0.4411,0.4454,0.4448,0.4427,0.442,0.4438,0.4427,0.446,0.4463,0.4484,0.4501,0.4502,0.4493,0.4486,0.4486,0.4627,0.4628,0,0,0.441,0.4435,0.4446,0.4451,0.4448,0.4426,0.4428,0.4461,0.4482,0.4501,0.4503,0.4493,0.4486,0.4486,0.4626,0.4628,0,0,0,0.4413,0.4435,0.4427,0.4449,0.4451,0.4427,0.4429,0.448,0.4476,0.4503,0.4494,0.4486,0.4487,0.4625,0.4627,0.4704,0,0,0,0.4412,0.4436,0.4427,0.4443,0.4451,0.4466,0.4447,0.4473,0.4476,0.4494,0.4486,0.4488,0.4624,0.4626,0.4699,0.4738,0,0,0,0.442,0.4437,0.4443,0.4444,0.4453,0.4465,0.4462,0.4473,0.4471,0.4485,0.4488,0.4623,0.4626,0.4695,0.473,0.4783,0,0,0,0.4436,0.4512,0.4445,0.4526,0.4453,0.4512,0.4461,0.4504,0.4525,0.4487,0.4624,0.4627,0.4694,0.4726,0.4779,0.4834,0.4858,0,0,0.4546,0.4526,0.4571,0.4512,0.4589,0.4507,0.4595,0.4592,0.457,0.461,0.4613,0.4701,0.473,0.4782,0.4983,0.5003,0,0,0,0.4615,0.4648,0.4663,0.4684,0.4683,0.4685,0.4665,0.4664,0.4696,0.4595,0.4732,0.4749,0.4778,0.4804,0.482,0.4845,0.4638,0.4638,0.4638,0.4807,0.4775,0.4849,0.4819,0.484,0.4818,0.4833,0.4828,0.4789,0.4822,0.4835,0.496,0.499,0.5003,0.5029,0.4859,0.4859,0.4859,0.4859,0.4967,0.501,0.4956,0.5008,0.4974,0.5018,0.4999,0.4971,0.5007,0.4948,0.4973,0.4913,0.5025,0.5047,0.4865,0.4864,0.4863,0.4863,0.4862,0.5092,0.5107,0.5103,0.513,0.5155,0.5121,0.5159,0.5126,0.5095,0.5119,0.513,0.5128,0.5125,0.5126,0.5126,0.5127,0.5127,0.5127,0.5128,0.5224,0.5217,0.5252,0.5256,0.5265,0.5274,0.5251,0.526,0.5261,0.5234,0.5234,0.5194,0.5041,0.5005,0.5134,0.5133,0.5132,0.5132,0.5131,0.5402,0.5356,0.5411,0.542,0.5422,0.545,0.5406,0.5426,0.5428,0.5448,0.5401,0.5293,0.5271,0.5257,0.5228,0.5407,0.5407,0.5407,0.5407,0.551,0.5494,0.5543,0.556,0.5573,0.5538,0.5603,0.5586,0.5562,0.5561,0.553,0.5486,0.5473,0.5459,0.5441,0.5413,0.5635,0.5635,0.5635,0.5618,0.5602,0.5663,0.5638,0.5637,0.5637,0.5696,0.5719,0.5682,0.5644,0.5561,0.5551,0.548,0.5458,0.5422,0.5395,0.5342,0,0]}]]